Tracking 19250 objects as of 23-Sep-2018
HD Live streaming from Space Station
objects crossing your sky now

FENGYUN 1C DEB

Track FENGYUN 1C DEB now!
10-day predictions


NORAD ID: 30633
Int'l Code: 1999-025ANQ
Perigee: 808.3 km
Apogee: 1,016.1 km
Inclination: 98.4 °
Period: 103.1 minutes
Semi major axis: 7283 km
RCS: 0.025 m2 (small)
Launch date: May 10, 1999
Source: People's Republic of China (PRC)
Launch site: Taiyaun Space Center, China (TSC)

Note: This is SATELLITE DEBRIS
aabbcc
Your satellite tracking list
Your tracking list is empty




NASA's NSSDC Master Catalog

Two Line Element Set (TLE):
1 30633U 99025ANQ 18265.57223339 +.00000354 +00000-0 +25863-3 0  9995
2 30633 098.4147 300.7809 0142645 103.1610 023.7152 13.96751894591537
Source of the keplerian elements: AFSPC